Voltar ao catálogo

DELTA 1 DEB

AtivoLEO
NORAD 39102·DEBRIS·🇺🇸 United States

Lançado Jul 14, 1977 de Cape Canaveral Space Force Station

Loading…

Próximas Passagens (próximas 24 horas)

TLE

AtualizadoSource: Space-Track

Época: Sep 13, 2026, 00:13 UTC

1 39102U 77065GP  26256.00933174  .00000288  00000-0  63107-4 0  9997
2 39102  28.9935  21.5864 0926390 239.4755 111.1163 13.03422234567278

Acompanhe DELTA 1 DEB em tempo real com AllMySat

Download on the App Store